Погода в Пояркове

Россия / Амурская область     49°37′34″N   128°39′27″E
темп.,
°C
ветер,
м/с
пор.,
м/с
влажн.,
%
обл.,
%
осадки,
мм/ч
давл.,
гПа
погр.,
м
27 ноября, сб
сб2700:00−20зюз1110067 0.0 10309
03:00−22юз1110065 0.0 10319
06:00−22ююз2210012 0.0 10319
09:00−19ю24995 0.0 103251
12:00−10ююз38898 0.0 1032252
15:00−8ю249213 0.0 103081
18:00−14юв33969 0.0 103135
21:00−17юв229862 0.0 103022
28 ноября, вс
вс2800:00−14юв359377 0.0 103060
03:00−13юв369371 0.0 102877
06:00−15юв3496100 0.0 102642
09:00−13ююз2397100 0.1 102558
12:00−8з3493100 0.1 1024279
15:00−9зсз3694100 0.2 1023299
18:00−16зсз229856 0.0 102313
21:00−15зсз359992 0.0 102370
29 ноября, пн
пн2900:00−11зсз2796100 0.1 1023196
03:00−10сз51093100 0.5 1023430
06:00−13зсз389240 0.1 1025140
09:00−16зсз410915 0.1 1027153
12:00−13зсз38845 0.0 1028316
15:00−14з22925 0.0 102810
18:00−21зсз119820 0.0 10299
21:00−22ююв0198100 0.0 10299
30 ноября, вт
вт3000:00−23юв229999 0.0 102811
03:00−21юв2298100 0.0 102732
06:00−21вюв2297100 0.0 102523
09:00−22вюв229833 0.0 102530
12:00−15в118783 0.0 102395
15:00−15с2294100 0.0 102114
18:00−17с3696100 0.0 102077
21:00−18ссз3995100 0.0 1019135
1 декабря, ср
ср100:00−18ссз51395100 0.0 1018239
03:00−19ссз61593100 0.0 1016298
06:00−19ссз6169096 0.0 1015339
09:00−19ссз616875 0.0 1015351
12:00−15сз716865 0.0 1012545
15:00−14сз715835 0.0 1009615
18:00−15сз614875 0.0 1009377
21:00−18сз512925 0.0 1007203